Back to catalog

CZ-4B DEB

AliveSSO
NORAD 34223·DEBRIS·🇨🇳 China

Launched May 15, 2002 from Taiyuan Satellite Launch Center

Loading…

Next Passes (next 24 hours)

TLE

FreshSource: Space-Track

Epoch: Sep 10, 2026, 23:54 UTC

1 34223U 02024H   26253.99587082  .00000609  00000-0  37455-3 0  9990
2 34223  99.0498 305.2700 0129486 118.7380 242.6869 14.05250665223390

Track CZ-4B DEB in real time with AllMySat

Download on the App Store